Location: ???? ?????????
(44.3677°N, 135.2344°E)
Time: 14:13:11
(UTC+00:00)

Cosmos 1464 Rocket - Pass Details

Date: 19 May 2025
Orbit: 952 x 1000 km, 82.9° (Epoch: 20 June)

Event Time Altitude Azimuth Distance (km) Brightness Sun altitude
Rises 17:35:01 0° 349° (N) 3,734 7.7 -16.1°
Reaches altitude 10° 17:37:34 10° 348° (NNW) 2,781 6.9 -15.8°
Maximum altitude 17:43:55 70° 266° (W) 1,061 4.0 -15.1°
Enters shadow 17:49:48 12° 185° (S) 2,604 5.8 -14.4°
